Weather History for KGWW - January, 2013

Change the Weather History Date:

Monday, January 7, 2013

  Actual Average (KGSB) Record (KGSB)
Temperature  
Mean Temperature 41 °F -  
Max Temperature 52 °F 53 °F 77 °F (1998)
Min Temperature 30 °F 34 °F 13 °F (2014)
Degree Days  
Heating Degree Days 24    
Moisture  
Dew Point 34 °F    
Average Humidity 83    
Maximum Humidity 100    
Minimum Humidity 48    
Precipitation  
Precipitation 0.00 in - - ()
Sea Level Pressure  
Sea Level Pressure 30.35 in    
Wind  
Wind Speed 3 mph (North)    
Max Wind Speed 15 mph    
Max Gust Speed 20 mph    
Visibility 9 miles    
Events      
Averages and records for this station are not official NWS values.
T = Trace of Precipitation, MM = Missing Value Source: NWS Daily Summary

Daily Weather History Graph

Daily Weather History Graph

Search for Another Location

Airport or City:

Trip Planner

Search our weather history database for the weather conditions in past years. The results will help you decide how hot, cold, wet, or windy it might be!

Date:

Astronomy

Jan. 07, 2013 Rise Set
Actual Time 7:21 AM EST 5:15 PM EST
Civil Twilight 6:53 AM EST 5:43 PM EST
Nautical Twilight 6:21 AM EST 6:14 PM EST
Astronomical Twilight 5:51 AM EST 6:45 PM EST
Moon 2:45 AM EST (1/7) 1:22 PM EST (1/7)
Length of Visible Light 10h 49m
Length of Day
9h 53m
Waning Crescent, 23% of the Moon is Illuminated
Jan 7
Waning Crescent
Jan 11
New
Jan 18
First Quarter
Jan 26
Full
Feb 3
Last Quarter

Hourly Weather History & Observations

Time (EST) Temp. Windchill Dew Point Humidity Pressure Visibility Wind Dir Wind Speed Gust Speed Precip Events Conditions
12:15 AM 40.1 °F 36.9 °F 40.1 °F 100% 30.17 in 5.0 mi NW 4.6 mph - N/A   Clear
12:35 AM 40.1 °F - 40.1 °F 100% 30.17 in 10.0 mi Calm Calm - N/A   Clear
12:55 AM 39.2 °F 37.0 °F 39.2 °F 100% 30.18 in 10.0 mi NNW 3.5 mph - N/A   Clear
1:15 AM 39.2 °F - 39.2 °F 100% 30.18 in 10.0 mi Calm Calm - N/A   Clear
1:35 AM 38.7 °F - 38.3 °F 99% 30.19 in 10.0 mi Calm Calm - N/A   Clear
1:55 AM 38.1 °F 35.7 °F 37.6 °F 98% 30.19 in 10.0 mi WNW 3.5 mph - N/A   Clear
2:15 AM 35.8 °F 33.0 °F 35.4 °F 99% 30.20 in 7.0 mi WNW 3.5 mph - N/A   Clear
2:35 AM 35.8 °F 33.0 °F 35.6 °F 99% 30.21 in 7.0 mi WNW 3.5 mph - N/A   Clear
3:15 AM 35.6 °F - 35.1 °F 98% 30.21 in 10.0 mi Calm Calm - N/A   Clear
3:35 AM 34.2 °F - 33.6 °F 98% 30.21 in 10.0 mi Calm Calm - N/A   Clear
3:55 AM 33.3 °F - 33.1 °F 99% 30.21 in 3.0 mi Calm Calm - N/A   Clear
4:15 AM 32.4 °F - 32.2 °F 99% 30.21 in 3.0 mi Calm Calm - N/A   Clear
4:35 AM 32.0 °F - 32.0 °F 100% 30.22 in 3.0 mi Calm Calm - N/A   Clear
4:55 AM 32.0 °F - 32.0 °F 100% 30.23 in 7.0 mi Calm Calm - N/A   Clear
5:15 AM 31.8 °F - 31.8 °F 100% 30.24 in 7.0 mi Calm Calm - N/A   Clear
5:35 AM 31.1 °F - 31.1 °F 100% 30.25 in 5.0 mi Calm Calm - N/A   Clear
5:55 AM 31.6 °F - 31.6 °F 100% 30.25 in 4.0 mi Calm Calm - N/A   Clear
6:15 AM 31.5 °F - 31.5 °F 100% 30.26 in 5.0 mi Calm Calm - N/A   Clear
6:35 AM 31.3 °F 27.9 °F 31.3 °F 100% 30.28 in 7.0 mi NNW 3.5 mph - N/A   Clear
6:55 AM 31.5 °F - 31.5 °F 100% 30.29 in 10.0 mi Calm Calm - N/A   Clear
7:15 AM 30.7 °F - 30.7 °F 100% 30.31 in 7.0 mi Calm Calm - N/A   Clear
7:35 AM 30.7 °F - 30.7 °F 100% 30.32 in 10.0 mi Calm Calm - N/A   Clear
7:55 AM 33.4 °F 29.1 °F 33.4 °F 100% 30.33 in 10.0 mi NNW 4.6 mph - N/A   Clear
8:15 AM 35.6 °F 31.7 °F 35.1 °F 98% 30.34 in 10.0 mi NNW 4.6 mph - N/A   Clear
8:35 AM 37.6 °F 34.0 °F 34.7 °F 89% 30.35 in 10.0 mi NNW 4.6 mph - N/A   Clear
8:55 AM 39.6 °F 36.3 °F 33.8 °F 80% 30.37 in 10.0 mi North 4.6 mph - N/A   Clear
9:15 AM 41.7 °F 37.3 °F 34.0 °F 74% 30.38 in 10.0 mi North 6.9 mph - N/A   Clear
9:35 AM 43.2 °F 37.0 °F 34.7 °F 72% 30.39 in 10.0 mi NNE 11.5 mph - N/A   Clear
9:55 AM 44.2 °F 37.3 °F 35.1 °F 70% 30.40 in 10.0 mi NNE 15.0 mph - N/A   Clear
10:35 AM 46.2 °F 40.8 °F 35.4 °F 66% 30.40 in 10.0 mi NE 11.5 mph 19.6 mph N/A   Clear
11:15 AM 48.2 °F - 35.2 °F 61% 30.40 in 10.0 mi NE 10.4 mph 17.3 mph N/A   Clear
11:35 AM 48.6 °F - 34.3 °F 58% 30.40 in 10.0 mi NNE 13.8 mph 18.4 mph N/A   Clear
11:55 AM 49.8 °F - 34.3 °F 55% 30.39 in 10.0 mi NE 9.2 mph 16.1 mph N/A   Clear
12:15 PM 49.8 °F - 34.9 °F 56% 30.39 in 10.0 mi NNE 10.4 mph - N/A   Clear
12:55 PM 50.4 °F - 34.3 °F 54% 30.39 in 10.0 mi NNE 8.1 mph - N/A   Clear
1:15 PM 51.3 °F - 34.2 °F 52% 30.39 in 10.0 mi NE 5.8 mph - N/A   Clear
1:35 PM 50.9 °F - 33.6 °F 52% 30.38 in 10.0 mi NNE 9.2 mph - N/A   Clear
1:55 PM 51.4 °F - 32.5 °F 49% 30.38 in 10.0 mi ENE 8.1 mph - N/A   Clear
2:15 PM 51.6 °F - 32.9 °F 49% 30.38 in 10.0 mi NNE 8.1 mph - N/A   Clear
2:35 PM 52.2 °F - 33.6 °F 49% 30.39 in 10.0 mi North 6.9 mph - N/A   Clear
2:55 PM 51.4 °F - 32.4 °F 48% 30.39 in 10.0 mi NE 6.9 mph - N/A   Clear
3:15 PM 51.4 °F - 32.5 °F 49% 30.39 in 10.0 mi NNE 4.6 mph - N/A   Clear
3:35 PM 51.4 °F - 33.1 °F 50% 30.40 in 10.0 mi NNE 3.5 mph - N/A   Clear
3:55 PM 51.1 °F - 33.4 °F 51% 30.40 in 10.0 mi NNE 3.5 mph - N/A   Clear
4:15 PM 50.9 °F - 33.1 °F 51% 30.41 in 10.0 mi ENE 5.8 mph - N/A   Clear
4:35 PM 50.4 °F - 33.8 °F 53% 30.41 in 10.0 mi Calm Calm - N/A   Clear
4:55 PM 48.4 °F - 35.2 °F 60% 30.41 in 10.0 mi Calm Calm - N/A   Clear
5:15 PM 45.9 °F - 34.3 °F 64% 30.41 in 10.0 mi Calm Calm - N/A   Clear
5:35 PM 42.3 °F - 36.0 °F 78% 30.42 in 10.0 mi Calm Calm - N/A   Clear
5:55 PM 41.0 °F - 36.3 °F 83% 30.42 in 10.0 mi Calm Calm - N/A   Clear
6:15 PM 40.1 °F - 36.0 °F 85% 30.43 in 10.0 mi Calm Calm - N/A   Clear
6:35 PM 38.3 °F - 34.3 °F 86% 30.43 in 10.0 mi Calm Calm - N/A   Clear
6:55 PM 37.4 °F - 34.3 °F 89% 30.43 in 10.0 mi Calm Calm - N/A   Clear
7:15 PM 35.8 °F - 33.8 °F 92% 30.44 in 10.0 mi Calm Calm - N/A   Clear
7:35 PM 36.0 °F - 34.3 °F 94% 30.44 in 10.0 mi Calm Calm - N/A   Clear
7:55 PM 35.2 °F - 33.8 °F 94% 30.44 in 10.0 mi Calm Calm - N/A   Clear
8:15 PM 35.1 °F - 34.0 °F 96% 30.44 in 7.0 mi Calm Calm - N/A   Clear
8:35 PM 33.8 °F - 32.9 °F 96% 30.45 in 10.0 mi Calm Calm - N/A   Clear
8:55 PM 33.4 °F - 32.7 °F 97% 30.45 in 7.0 mi Calm Calm - N/A   Clear
9:15 PM 33.3 °F - 32.9 °F 99% 30.46 in 5.0 mi Calm Calm - N/A   Clear
9:55 PM 32.0 °F 28.7 °F 32.0 °F 100% 30.46 in 10.0 mi SE 3.5 mph - N/A   Clear
10:15 PM 32.2 °F - 31.6 °F 98% 30.46 in 10.0 mi Calm Calm - N/A   Clear
10:35 PM 32.0 °F - 31.8 °F 99% 30.46 in 10.0 mi Calm Calm - N/A   Clear
10:55 PM 32.0 °F - 32.0 °F 100% 30.45 in 10.0 mi Calm Calm - N/A   Clear
11:35 PM 32.0 °F - 31.8 °F 99% 30.44 in 10.0 mi Calm Calm - N/A   Clear
11:55 PM 32.0 °F - 31.8 °F 99% 30.44 in 10.0 mi Calm Calm - N/A   Clear